Chesapeake, VA

10:36 PM EDT on September 22, 2017 (GMT -0400)
Chesapeake Regional

Weather History for KCPK - December, 2012

Change the Weather History Date:

Thursday, December 20, 2012

  Actual Average (KSFQ) Record (KSFQ)
Temperature  
Mean Temperature 48 °F -  
Max Temperature 62 °F 51 °F 70 °F (1957)
Min Temperature 33 °F 33 °F 14 °F (1950)
Degree Days  
Heating Degree Days 18    
Moisture  
Dew Point 43 °F    
Average Humidity 83    
Maximum Humidity 100    
Minimum Humidity 62    
Precipitation  
Precipitation 0.04 in - - ()
Sea Level Pressure  
Sea Level Pressure 30.03 in    
Wind  
Wind Speed 4 mph (ESE)    
Max Wind Speed 16 mph    
Max Gust Speed 25 mph    
Visibility 10 miles    
Events Rain    
Averages and records for this station are not official NWS values.
T = Trace of Precipitation, MM = Missing Value Source: NWS Daily Summary

Daily Weather History Graph

Daily Weather History Graph

Search for Another Location

Airport or City:

Trip Planner

Search our weather history database for the weather conditions in past years. The results will help you decide how hot, cold, wet, or windy it might be!

Date:

Astronomy

Dec. 20, 2012 Rise Set
Actual Time 7:13 AM EST 4:52 PM EST
Civil Twilight 6:44 AM EST 5:21 PM EST
Nautical Twilight 6:12 AM EST 5:54 PM EST
Astronomical Twilight 5:40 AM EST 6:25 PM EST
Moon 12:02 PM EST (12/20) 12:06 AM EST (12/20)
Length of Visible Light 10h 36m
Length of Day
9h 39m
First Quarter, 55% of the Moon is Illuminated
Dec 20
First Quarter
Dec 28
Full
Jan 4
Last Quarter
Jan 11
New
Jan 18
First Quarter

Hourly Weather History & Observations

Time (EST) Temp. Windchill Dew Point Humidity Pressure Visibility Wind Dir Wind Speed Gust Speed Precip Events Conditions
12:15 AM 42.8 °F 41.1 °F 39.2 °F 87% 30.18 in 10.0 mi NE 3.5 mph - N/A   Clear
12:35 AM 44.6 °F - 39.2 °F 81% 30.18 in 10.0 mi Calm Calm - N/A   Clear
12:55 AM 44.6 °F - 39.2 °F 81% 30.19 in 10.0 mi Calm Calm - N/A   Clear
1:15 AM 42.8 °F - 39.2 °F 87% 30.18 in 10.0 mi Calm Calm - N/A   Clear
1:55 AM 39.2 °F - 37.4 °F 93% 30.18 in 10.0 mi Calm Calm - N/A   Clear
2:15 AM 39.2 °F - 37.4 °F 93% 30.19 in 10.0 mi Calm Calm - N/A   Clear
2:35 AM 37.4 °F - 37.4 °F 100% 30.18 in 7.0 mi Calm Calm - N/A   Clear
2:55 AM 37.4 °F - 37.4 °F 100% 30.19 in 7.0 mi Calm Calm - N/A   Clear
3:15 AM 37.4 °F - 37.4 °F 100% 30.19 in 5.0 mi Calm Calm - N/A   Clear
3:35 AM 35.6 °F - 35.6 °F 100% 30.19 in 7.0 mi Calm Calm - N/A   Clear
3:55 AM 37.4 °F - 35.6 °F 93% 30.19 in 10.0 mi Calm Calm - N/A   Clear
4:15 AM 35.6 °F - 35.6 °F 100% 30.20 in 10.0 mi Calm Calm - N/A   Clear
4:35 AM 35.6 °F - 35.6 °F 100% 30.19 in 10.0 mi Calm Calm - N/A   Clear
4:55 AM 35.6 °F - 35.6 °F 100% 30.19 in 3.0 mi Calm Calm - N/A   Clear
5:15 AM 35.6 °F - 35.6 °F 100% 30.19 in 5.0 mi Calm Calm - N/A   Clear
5:35 AM 35.6 °F - 35.6 °F 100% 30.20 in 10.0 mi Calm Calm - N/A   Clear
5:55 AM 33.8 °F - 33.8 °F 100% 30.20 in 7.0 mi Calm Calm - N/A   Clear
6:15 AM 33.8 °F - 33.8 °F 100% 30.21 in 10.0 mi Calm Calm - N/A   Clear
6:35 AM 33.8 °F - 33.8 °F 100% 30.21 in 10.0 mi Calm Calm - N/A   Clear
6:55 AM 35.6 °F - 33.8 °F 93% 30.22 in 10.0 mi Calm Calm - N/A   Clear
7:15 AM 35.6 °F - 33.8 °F 93% 30.21 in 10.0 mi Calm Calm - N/A   Clear
7:35 AM 35.6 °F - 33.8 °F 93% 30.20 in 10.0 mi Calm Calm - N/A   Clear
7:55 AM 35.6 °F - 33.8 °F 93% 30.20 in 10.0 mi Calm Calm - N/A   Clear
8:15 AM 35.6 °F - 33.8 °F 93% 30.19 in 10.0 mi Calm Calm - N/A   Clear
8:35 AM 37.4 °F - 35.6 °F 93% 30.19 in 10.0 mi Calm Calm - N/A   Clear
8:55 AM 39.2 °F - 37.4 °F 93% 30.18 in 10.0 mi Calm Calm - N/A   Clear
9:15 AM 41.0 °F - 39.2 °F 93% 30.19 in 10.0 mi Calm Calm - N/A   Clear
9:35 AM 44.6 °F - 41.0 °F 87% 30.19 in 10.0 mi Calm Calm - N/A   Clear
9:55 AM 46.4 °F - 41.0 °F 81% 30.19 in 10.0 mi Calm Calm - N/A   Clear
10:15 AM 48.2 °F - 41.0 °F 76% 30.17 in 10.0 mi East 8.1 mph - N/A   Scattered Clouds
10:35 AM 50.0 °F - 41.0 °F 71% 30.16 in 10.0 mi ESE 10.4 mph - N/A   Clear
10:55 AM 51.8 °F - 41.0 °F 67% 30.14 in 10.0 mi East 10.4 mph - N/A   Clear
11:15 AM 51.8 °F - 39.2 °F 62% 30.13 in 10.0 mi ESE 9.2 mph - N/A   Clear
11:35 AM 51.8 °F - 39.2 °F 62% 30.13 in 10.0 mi ESE 8.1 mph - N/A   Clear
11:55 AM 53.6 °F - 41.0 °F 62% 30.12 in 10.0 mi ESE 8.1 mph - N/A   Clear
12:15 PM 53.6 °F - 41.0 °F 62% 30.11 in 10.0 mi SE 9.2 mph - N/A   Clear
12:35 PM 53.6 °F - 42.8 °F 67% 30.09 in 10.0 mi ESE 6.9 mph - N/A   Clear
12:55 PM 53.6 °F - 42.8 °F 67% 30.08 in 10.0 mi East 6.9 mph - N/A   Clear
1:15 PM 55.4 °F - 42.8 °F 63% 30.07 in 10.0 mi East 8.1 mph - N/A   Clear
1:35 PM 55.4 °F - 42.8 °F 63% 30.05 in 10.0 mi East 8.1 mph - N/A   Clear
1:55 PM 55.4 °F - 42.8 °F 63% 30.05 in 10.0 mi ESE 8.1 mph - N/A   Clear
2:15 PM 55.4 °F - 44.6 °F 67% 30.05 in 10.0 mi East 4.6 mph - N/A   Clear
2:35 PM 55.4 °F - 44.6 °F 67% 30.04 in 10.0 mi Calm Calm - N/A   Clear
2:55 PM 55.4 °F - 44.6 °F 67% 30.02 in 10.0 mi East 6.9 mph - N/A   Clear
3:15 PM 53.6 °F - 44.6 °F 72% 30.01 in 10.0 mi East 12.7 mph 17.3 mph N/A   Scattered Clouds
3:35 PM 53.6 °F - 44.6 °F 72% 29.99 in 10.0 mi East 9.2 mph - N/A   Mostly Cloudy
3:55 PM 53.6 °F - 44.6 °F 72% 29.98 in 10.0 mi East 6.9 mph - N/A   Scattered Clouds
4:15 PM 53.6 °F - 44.6 °F 72% 29.97 in 10.0 mi East 8.1 mph - N/A   Scattered Clouds
4:35 PM 53.6 °F - 44.6 °F 72% 29.96 in 10.0 mi East 8.1 mph - N/A   Mostly Cloudy
4:55 PM 53.6 °F - 46.4 °F 77% 29.95 in 10.0 mi East 8.1 mph - N/A   Overcast
5:15 PM 53.6 °F - 46.4 °F 77% 29.95 in 10.0 mi East 6.9 mph - N/A   Mostly Cloudy
5:35 PM 53.6 °F - 46.4 °F 77% 29.93 in 10.0 mi East 8.1 mph - N/A   Overcast
5:55 PM 53.6 °F - 46.4 °F 77% 29.92 in 10.0 mi East 8.1 mph - N/A   Mostly Cloudy
6:15 PM 53.6 °F - 46.4 °F 77% 29.89 in 10.0 mi East 8.1 mph - N/A   Mostly Cloudy
6:35 PM 53.6 °F - 48.2 °F 82% 29.89 in 10.0 mi East 10.4 mph 16.1 mph N/A   Overcast
6:55 PM 53.6 °F - 48.2 °F 82% 29.88 in 10.0 mi East 9.2 mph 17.3 mph N/A   Overcast
7:15 PM 55.4 °F - 48.2 °F 77% 29.86 in 10.0 mi East 12.7 mph 19.6 mph N/A   Overcast
7:35 PM 55.4 °F - 48.2 °F 77% 29.84 in 10.0 mi East 10.4 mph 18.4 mph N/A   Overcast
7:55 PM 55.4 °F - 50.0 °F 82% 29.83 in 10.0 mi ESE 13.8 mph 20.7 mph N/A   Overcast
8:15 PM 57.2 °F - 51.8 °F 82% 29.81 in 10.0 mi ESE 8.1 mph - N/A   Overcast
8:35 PM 57.2 °F - 51.8 °F 82% 29.80 in 10.0 mi ESE 9.2 mph - N/A Rain Light Rain
8:55 PM 57.2 °F - 51.8 °F 82% 29.79 in 10.0 mi ESE 9.2 mph - N/A Rain Light Rain
9:15 PM 57.2 °F - 51.8 °F 82% 29.77 in 10.0 mi SE 9.2 mph - N/A   Mostly Cloudy
9:35 PM 59.0 °F - 53.6 °F 82% 29.75 in 10.0 mi SE 10.4 mph - N/A   Mostly Cloudy
9:55 PM 60.8 °F - 53.6 °F 77% 29.72 in 10.0 mi SE 12.7 mph 19.6 mph N/A Rain Light Rain
10:15 PM 60.8 °F - 55.4 °F 82% 29.67 in 10.0 mi SE 11.5 mph 18.4 mph N/A   Drizzle
10:35 PM 62.6 °F - 55.4 °F 77% 29.65 in 10.0 mi SE 16.1 mph 23.0 mph N/A Rain Light Rain
10:55 PM 62.6 °F - 57.2 °F 82% 29.64 in 10.0 mi SE 12.7 mph 18.4 mph N/A Rain Light Rain
11:15 PM 60.8 °F - 57.2 °F 88% 29.61 in 10.0 mi SE 15.0 mph 21.9 mph 0.01 in Rain Rain
11:35 PM 60.8 °F - 59.0 °F 94% 29.60 in 10.0 mi SSE 13.8 mph 25.3 mph 0.04 in Rain Rain
11:55 PM 60.8 °F - 59.0 °F 94% 29.55 in 10.0 mi SE 13.8 mph 20.7 mph 0.02 in Rain Rain